Regional Weather Roundup
Issued by NWS

Home | Current Version | Previous Version | Graphics & Text | Print | Product List | Glossary On
Versions: 1 2 3 4 5 6 7 8 9 10 11 12 13 14 15 16 17 18 19 20 21 22 23 24 25 26 27 28 29 30 31 32 33 34 35 36 37 38 39 40 41 42 43 44 45 46 47 48 49 50
000
ASUS43 KOAX 212002
RWRNE

WEATHER ROUNDUP FOR NEBRASKA
NATIONAL WEATHER SERVICE OMAHA NE
300 PM CDT SUN SEP 21 2014

NOTES: SATELLITE DATA IS BEING USED TO AUGMENT CLOUD COVER ABOVE
       12000 FEET.
       "FAIR" INDICATES FEW OR NO CLOUDS BELOW 12,000 FEET WITH NO
       SIGNIFICANT WEATHER AND/OR OBSTRUCTIONS TO VISIBILITY.

  * THESE STATIONS DO NOT REPORT WEATHER SUCH AS RAIN...SNOW OR FOG.

NEZ001>004-019>022-054>056-212100-
NEBRASKA PANHANDLE

CITY           SKY/WX    TMP DP  RH WIND       PRES   REMARKS
SCOTTSBLUFF    SUNNY     74  39  28 SE13      30.31F
ALLIANCE       MOSUNNY   74  38  27 E6        30.31F
CHADRON        SUNNY     75  40  28 E5        30.28F
KIMBALL        SUNNY     72  38  29 SE14G24   30.33F
SIDNEY         MOSUNNY   73  38  27 S8        30.34F
$$

NEZ057>060-069>072-079>082-212100-
SOUTHWEST NEBRASKA

CITY           SKY/WX    TMP DP  RH WIND       PRES   REMARKS
NORTH PLATTE   SUNNY     75  39  27 MISG      30.29F
IMPERIAL       PTSUNNY   73  36  25 VRB6      30.32F
LEXINGTON      SUNNY     74  41  29 N7        30.28F
MCCOOK         SUNNY     77  37  23 NE7       30.30F
OGALLALA       SUNNY     75  40  28 CALM      30.31F
$$

NEZ005>010-023>029-035>040-094-212100-
NORTH CENTRAL NEBRASKA

CITY           SKY/WX    TMP DP  RH WIND       PRES   REMARKS
VALENTINE      SUNNY     73  36  25 N5        30.30F
AINSWORTH      SUNNY     70  38  31 N9        30.30F
BROKEN BOW     SUNNY     76  36  23 N10G16    30.28F
O`NEILL        SUNNY     71  46  40 N12G18    30.28F
ORD            SUNNY     72  41  32 VRB6G20   30.26F
THEDFORD       SUNNY     74  41  30 NE6       30.31F
$$

NEZ041-046>049-061>064-073>077-083>087-212100-
SOUTH CENTRAL NEBRASKA

CITY           SKY/WX    TMP DP  RH WIND       PRES   REMARKS
GRAND ISLAND   SUNNY     75  41  29 N16G25    30.26F
AURORA         SUNNY     74  38  27 N12G17    30.25F
HASTINGS       SUNNY     74  41  30 N10       30.26F
HEBRON         SUNNY     75  37  24 N13       30.23F
HOLDREGE       SUNNY     72  40  30 NW7       30.27F
KEARNEY *      SUNNY     73  39  29 N15G21    30.27F
YORK           SUNNY     72  48  43 N13G28    30.25F
$$

NEZ011>018-030>034-042>045-212100-
NORTHEAST NEBRASKA

CITY           SKY/WX    TMP DP  RH WIND       PRES   REMARKS
NORFOLK        MOSUNNY   71  46  40 NW16G25   30.23F
ALBION         SUNNY     72  41  32 NW14      30.26F
BLAIR          PTSUNNY   71  47  41 NW18      30.21S
COLUMBUS *     SUNNY     72  45  37 N16G23    30.25F
FREMONT        MOSUNNY   71  44  37 N14G20    30.23S
TEKAMAH        MOSUNNY   73  47  39 N17G23    30.21F
WAYNE          SUNNY     69  46  43 N14G25    30.24F
$$

NEZ050>053-065>068-078-088>093-212100-
SOUTHEAST NEBRASKA

CITY           SKY/WX    TMP DP  RH WIND       PRES   REMARKS
LINCOLN        SUNNY     74  45  35 N21       30.22F
OMAHA EPPLEY   MOSUNNY   72  47  40 N17G25    30.20F
BEATRICE       SUNNY     75  45  34 N17G24    30.22S
FALLS CITY     SUNNY     75  46  35 N17G23    30.18F
NEBRASKA CITY    N/A     72  36  27 N14G22    30.20S
$$

NEZ044-045-051>053-067-212100-
OMAHA AREA

CITY           SKY/WX    TMP DP  RH WIND       PRES   REMARKS
OMAHA EPPLEY   MOSUNNY   72  47  40 N17G25    30.20F
BLAIR          PTSUNNY   71  47  41 NW18      30.21S
FREMONT        MOSUNNY   71  44  37 N14G20    30.23S
MILLARD        MOSUNNY   71  48  43 N8        30.21S
OFFUTT AFB     MOSUNNY   71  50  48 N13       30.20F
WAHOO          FAIR      73  42  33 N13G23    30.22F
$$



USA.gov is the U.S. government's official web portal to all federal, state and local government web resources and services.